Temperature
17 17 17 16 16 16 15 15 15 15 14 14 14 13 13 13 12 11 11 11 10 10 9 9 9 9 8 8 7 7 6 6 5 6 5 5 5 4 4 3 3 3 3
17 17 17 16 16 15 15 15 15 14 14 14 14 13 13 12 12 11 11 11 10 10 9 9 9 8 8 8 7 7 6 6 5 5 5 5 4 4 3 3 2 2 2
16 16 16 16 16 16 15 15 15 14 14 13 13 13 13 12 12 11 11 11 10 10 9 9 8 8 8 7 7 6 6 5 5 4 4 4 4 3 3 2 2 1 1
15 16 16 16 16 16 15 15 14 14 13 13 13 13 12 12 11 11 11 10 10 9 9 8 8 8 7 7 6 6 6 5 4 4 4 3 3 3 2 2 1 1 0
15 15 15 15 15 15 15 15 14 14 13 13 13 12 12 11 11 11 10 10 9 9 8 8 8 7 7 7 6 6 5 4 4 3 3 3 2 2 1 1 0 -0 -0
14 14 15 15 15 15 14 14 14 13 13 13 12 12 12 11 11 11 10 9 9 8 8 8 7 7 7 6 6 5 4 4 3 3 3 2 2 1 1 -0 -1 -1 -2
14 14 14 14 14 14 14 13 13 13 13 12 12 11 11 11 11 10 9 9 8 8 8 7 7 7 6 6 5 5 4 4 3 3 2 2 1 0 -0 -1 -1 -2 -2
13 13 13 13 13 13 13 13 12 12 12 12 11 11 11 10 10 9 9 8 8 7 7 7 7 6 6 5 5 4 4 3 3 2 2 1 0 -0 -1 -2 -2 -3 -3
12 12 12 12 12 12 12 12 12 12 11 11 11 10 10 9 9 8 8 7 7 7 6 6 6 6 5 5 4 3 3 3 2 2 1 0 -0 -1 -2 -2 -3 -3 -4
11 11 11 11 11 11 12 11 11 11 11 10 10 9 9 9 8 8 8 7 6 6 6 5 5 5 5 4 3 3 2 2 1 1 0 -0 -1 -2 -3 -3 -4 -4 -5
10 10 10 10 11 11 11 10 10 10 10 9 9 8 8 8 8 7 7 6 6 6 5 5 5 4 4 3 3 2 2 1 1 0 -1 -1 -2 -3 -3 -4 -4 -5 -6
9 9 10 10 10 10 9 9 9 9 9 8 8 7 7 7 6 6 6 6 5 5 5 4 4 4 3 2 2 1 1 0 -0 -1 -1 -2 -3 -3 -4 -4 -5 -5 -6
8 9 9 9 9 9 8 8 8 8 8 8 7 7 6 6 6 5 5 5 4 4 4 4 3 3 2 2 1 1 0 -0 -1 -2 -2 -3 -3 -4 -4 -5 -5 -6 -6
7 8 8 8 8 8 8 7 8 7 7 7 6 6 5 5 5 4 4 4 4 3 3 3 2 2 1 1 0 -0 -1 -1 -2 -2 -3 -4 -4 -5 -5 -6 -6 -6 -6
6 7 7 7 7 7 7 6 7 7 7 7 6 5 5 5 4 4 4 3 3 3 2 2 1 1 1 0 -0 -1 -2 -2 -3 -3 -4 -4 -5 -5 -6 -6 -7 -7 -7
6 6 6 6 6 5 5 5 5 5 5 5 5 5 4 4 4 3 3 3 2 2 2 1 1 0 -0 -1 -1 -2 -2 -3 -3 -4 -5 -5 -5 -6 -6 -7 -7 -8 -8
5 5 5 5 5 5 5 4 4 4 3 3 3 3 3 3 3 3 2 2 1 1 1 0 -0 -0 -1 -1 -2 -2 -3 -3 -4 -5 -5 -5 -6 -6 -7 -7 -8 -8 -8
4 4 4 4 4 4 4 4 3 3 3 2 2 2 2 2 2 1 1 1 -0 -0 -0 -0 -1 -1 -2 -2 -3 -3 -3 -4 -5 -5 -6 -6 -7 -7 -7 -8 -8 -9 -9
3 3 3 3 3 3 3 3 2 2 2 2 2 1 1 1 1 0 0 -0 -0 -1 -1 -1 -2 -2 -2 -3 -3 -4 -4 -5 -5 -6 -6 -7 -7 -7 -8 -8 -8 -9 -9
2 2 2 2 2 2 2 2 1 1 1 1 1 1 0 -0 -0 -1 -1 -1 -1 -1 -1 -2 -2 -3 -3 -3 -4 -4 -5 -5 -6 -6 -7 -7 -7 -8 -8 -8 -9 -9 -9
1 1 1 1 1 1 1 1 1 1 0 0 0 -0 -0 -0 -1 -1 -1 -2 -2 -2 -2 -3 -3 -3 -4 -4 -4 -5 -5 -6 -6 -7 -7 -7 -8 -8 -8 -9 -9 -9 -10
0 -0 0 0 0 0 -0 -0 -0 -0 -0 -1 -1 -1 -2 -1 -1 -2 -2 -2 -2 -2 -3 -3 -4 -4 -4 -4 -5 -5 -6 -6 -6 -7 -7 -8 -8 -8 -9 -9 -9 -10 -10
-1 -1 -1 -1 -1 -1 -1 -1 -1 -1 -1 -1 -2 -2 -2 -2 -2 -2 -3 -3 -3 -3 -4 -4 -4 -4 -5 -5 -5 -6 -6 -6 -7 -7 -8 -8 -8 -9 -9 -9 -10 -10 -10
-2 -2 -2 -1 -2 -1 -1 -1 -2 -2 -2 -2 -2 -3 -3 -3 -3 -3 -3 -3 -4 -4 -4 -5 -5 -5 -5 -6 -6 -6 -7 -7 -7 -8 -8 -8 -9 -9 -9 -9 -10 -10 -10
-2 -2 -2 -2 -2 -2 -2 -2 -3 -3 -3 -3 -3 -3 -3 -3 -3 -3 -4 -4 -4 -5 -5 -5 -5 -6 -6 -6 -6 -7 -7 -7 -8 -8 -8 -9 -9 -9 -9 -10 -10 -10 -10
-3 -3 -3 -3 -3 -3 -3 -3 -3 -3 -3 -3 -4 -4 -4 -4 -4 -4 -4 -5 -5 -5 -5 -6 -6 -6 -6 -7 -7 -7 -7 -8 -8 -8 -9 -9 -9 -9 -10 -10 -10 -10 -10
Wind_Speed
10 12 13 14 14 13 13 14 13 12 12 13 14 14 14 13 13 13 12 12 13 11 9 10 11 8 7 6 5 5 6 6 8 5 3 2 2 3 3 4 5 6 8
8 9 11 12 12 13 14 13 12 12 12 13 13 13 13 13 13 14 14 13 13 13 12 11 11 8 8 6 6 7 6 7 6 7 3 3 4 3 3 3 4 5 7
7 8 8 10 12 14 14 12 12 12 12 12 12 13 13 13 13 13 13 13 13 13 12 12 11 10 9 7 7 7 6 6 6 5 4 2 2 1 2 3 3 4 7
6 7 9 11 12 13 12 12 12 12 13 13 13 13 13 13 13 13 12 12 12 11 11 11 11 11 11 10 8 8 6 5 5 4 4 3 2 1 1 3 4 3 5
6 8 10 9 9 10 10 11 11 11 12 12 12 11 11 11 11 12 12 12 12 10 9 10 10 11 12 10 8 7 7 6 5 4 4 3 3 2 2 2 4 4 5
7 9 8 7 8 9 10 10 10 10 10 10 11 12 12 10 14 17 14 11 11 11 10 9 9 10 11 12 11 10 9 7 7 5 4 5 4 4 3 3 3 3 4
6 7 7 8 8 9 8 9 10 10 9 10 11 11 11 12 15 16 16 12 10 10 10 9 7 7 9 7 8 8 8 8 8 6 5 6 4 4 3 3 3 4 5
5 6 6 7 8 7 8 9 9 8 9 9 10 10 10 10 14 15 16 11 9 9 9 10 9 8 8 9 7 6 5 5 6 5 5 5 5 4 4 4 4 3 4
5 6 6 7 7 7 9 9 8 8 8 8 8 9 9 9 13 14 14 8 7 8 7 8 9 9 11 12 9 7 5 4 4 5 4 3 3 3 1 1 0 2 3
6 6 5 6 7 8 8 7 5 6 7 7 7 7 8 8 11 13 13 8 7 6 6 7 10 10 12 12 9 8 7 5 4 3 2 1 1 1 1 2 2 2 2
5 4 3 4 5 6 5 5 5 5 6 6 6 6 6 8 10 13 14 8 8 7 6 6 6 11 12 12 10 7 7 6 5 4 3 2 1 1 1 1 2 2 3
3 3 3 4 3 3 5 5 5 6 7 6 6 5 4 5 7 10 13 10 9 8 7 6 7 11 11 10 8 7 8 6 4 4 3 2 2 2 2 2 2 2 4
2 2 3 2 3 4 6 6 6 6 6 6 6 6 4 4 5 9 11 11 10 6 6 9 10 11 9 7 7 8 7 5 4 4 3 3 2 2 2 1 1 2 3
3 2 2 2 2 3 4 5 6 7 6 6 7 6 5 4 5 5 6 7 8 6 6 8 10 9 7 6 6 5 3 4 4 4 3 2 1 1 1 1 2 2 2
3 2 2 2 2 3 3 4 5 6 7 7 7 7 8 7 8 10 8 7 6 7 7 5 5 5 4 4 4 3 3 3 3 2 2 2 1 1 1 1 1 1 2
2 2 2 2 2 3 3 1 1 2 4 5 5 5 5 6 9 10 10 10 11 13 8 6 6 6 6 5 5 4 3 3 3 3 3 3 2 2 2 2 1 2 3
3 3 2 2 3 3 4 4 2 2 4 5 6 6 6 8 10 11 11 12 12 12 5 6 6 6 5 5 5 4 4 3 3 3 3 3 3 2 2 2 2 2 3
3 3 2 3 3 3 4 4 4 4 3 2 3 7 8 9 10 11 13 10 7 6 4 5 5 5 5 5 5 4 4 3 3 3 3 3 3 3 2 2 2 3 4
2 2 2 2 2 2 3 3 4 4 4 3 3 4 7 8 9 11 10 5 6 5 4 4 5 5 5 5 5 4 4 4 4 3 3 3 3 3 3 3 3 5 4
2 2 2 1 2 2 3 3 4 4 4 4 4 4 4 5 5 6 4 4 4 4 4 4 4 4 5 5 5 4 4 4 4 3 3 3 3 3 3 4 3 3 3
1 1 1 1 2 3 3 3 4 4 4 4 3 4 7 6 6 5 4 4 4 4 4 4 4 4 4 4 4 5 5 4 4 4 4 3 3 3 3 3 3 3 3
0 1 1 1 2 2 3 3 4 4 4 4 4 4 7 4 4 4 4 3 3 3 4 4 4 4 4 5 5 5 5 4 4 4 4 3 3 3 3 3 3 3 3
0 1 1 2 2 3 3 3 3 4 4 4 4 4 4 4 4 4 4 3 3 3 3 4 4 3 3 3 4 5 5 5 5 5 5 4 3 3 3 3 3 3 3
1 1 2 2 2 3 3 3 3 3 4 4 4 4 4 4 4 4 3 3 3 3 3 3 3 4 4 3 3 4 4 5 6 6 6 5 4 3 3 2 3 3 3
1 2 2 2 2 3 3 3 3 3 4 4 4 4 4 4 4 3 3 3 4 3 3 3 3 4 4 4 4 4 6 6 6 6 6 4 4 4 3 3 2 2 3
1 2 2 2 2 3 3 3 3 3 3 3 3 3 4 4 4 3 3 4 4 3 3 3 3 4 4 4 5 5 5 6 6 6 6 4 4 3 3 2 3 2 2
Wind_Direction
209 208 206 206 205 202 204 206 204 199 195 196 196 197 199 199 198 200 206 202 205 209 206 207 215 208 207 206 202 205 212 213 245 259 225 222 222 248 281 284 284 290 299
211 206 209 205 199 202 207 206 200 199 198 197 194 196 199 200 198 201 205 205 207 209 209 208 215 205 206 203 202 209 214 211 224 253 246 228 235 246 265 277 290 291 293
207 204 208 206 201 205 207 203 198 197 196 194 193 197 200 200 199 202 204 206 209 210 208 208 209 200 207 207 206 211 214 213 215 233 247 238 245 259 278 281 285 285 295
210 204 212 214 209 206 203 199 198 196 196 197 198 199 200 199 199 201 202 205 207 209 207 206 204 202 207 205 207 210 205 204 209 227 243 248 252 264 260 274 291 280 289
214 214 219 217 209 202 199 198 196 196 198 197 196 199 198 199 201 199 200 202 203 203 203 204 205 203 204 202 202 201 194 199 204 218 234 238 243 251 253 252 276 293 285
220 223 222 212 206 203 202 196 194 197 197 193 197 199 199 204 199 195 195 198 199 198 200 202 203 201 205 207 207 199 192 196 204 208 223 233 242 234 238 257 272 302 293
230 228 218 209 209 208 199 195 197 197 193 196 200 198 202 204 196 195 192 193 196 198 197 195 196 199 195 193 197 193 196 203 201 198 211 224 229 224 224 247 249 252 261
240 235 222 210 211 205 196 200 200 194 194 200 201 200 201 201 191 191 188 191 196 197 196 194 191 191 191 184 177 181 190 202 205 200 204 214 217 213 209 221 241 267 276
252 241 226 210 206 200 199 201 198 192 196 199 196 195 197 198 188 187 181 188 194 198 196 192 189 191 191 180 173 178 182 195 196 194 204 207 213 217 205 136 324 310 291
267 251 230 210 203 202 201 197 193 191 193 189 192 194 194 195 187 183 178 185 190 191 189 192 193 190 187 181 178 180 190 197 176 168 175 178 157 206 229 190 199 243 278
291 274 240 216 208 203 194 186 177 176 177 183 187 192 192 191 185 182 180 187 188 186 186 189 192 187 186 185 184 187 196 177 161 158 160 167 170 195 240 235 211 211 239
296 275 251 223 205 189 178 178 176 175 177 179 179 183 189 185 183 187 187 189 181 180 184 181 182 179 179 181 183 181 171 157 147 155 169 193 205 221 240 254 265 253 242
297 281 269 235 202 189 182 179 177 178 179 181 181 187 190 185 185 184 185 184 181 176 171 170 169 170 168 169 170 167 159 151 156 173 195 215 214 212 224 260 279 291 290
300 292 279 227 205 193 186 184 183 184 183 183 186 188 184 183 182 180 181 179 174 160 148 155 156 156 150 150 152 153 151 160 169 183 193 196 183 192 223 246 267 294 304
296 304 288 251 210 201 195 198 197 201 192 188 191 185 182 193 197 185 175 173 168 158 143 136 138 144 149 148 144 147 154 158 167 169 170 179 193 217 249 253 249 263 271
295 294 271 246 219 203 184 160 146 167 172 177 178 179 191 188 175 178 174 166 160 154 144 155 163 167 171 172 172 174 176 176 177 174 177 188 202 219 247 259 258 256 273
270 270 259 244 221 200 181 172 158 99 115 142 156 161 161 160 163 164 160 156 157 153 149 164 172 176 178 178 179 181 187 182 176 179 186 193 202 215 232 254 268 274 277
279 266 251 235 223 201 183 175 171 167 163 146 147 150 150 152 154 154 151 144 155 158 162 169 175 176 176 177 178 176 173 170 175 184 189 193 197 209 227 244 256 261 274
280 264 250 230 213 190 170 161 159 160 157 148 131 142 147 148 147 149 148 151 164 171 168 169 169 170 173 175 175 174 174 179 183 186 194 195 197 204 226 241 252 273 276
281 264 257 215 171 157 152 154 154 152 152 155 161 157 150 141 145 153 153 149 157 163 163 165 167 170 171 172 172 170 172 178 181 189 194 195 198 205 223 237 245 258 264
287 260 229 168 154 154 151 154 156 153 157 161 162 162 157 153 156 158 160 160 162 164 163 161 162 166 168 168 169 171 176 186 188 189 193 195 196 211 223 232 240 248 261
247 236 203 151 140 142 139 139 139 139 144 147 138 139 148 137 143 150 152 154 156 156 157 156 162 169 173 176 176 177 182 190 192 191 192 193 197 209 218 226 237 248 259
143 155 138 119 126 134 126 128 133 138 144 147 144 142 144 142 143 146 146 144 143 143 144 149 157 163 166 169 173 177 184 193 194 187 186 190 197 203 206 217 230 246 258
146 155 148 136 131 132 131 130 130 134 139 141 143 146 146 145 142 139 139 138 137 137 140 148 159 163 164 163 164 169 174 178 175 177 178 183 191 196 198 207 226 241 252
138 145 143 140 138 134 132 132 131 134 137 139 142 141 137 137 137 137 138 138 138 140 142 145 149 153 160 163 169 174 183 189 189 174 168 177 183 188 191 203 222 239 250
117 133 134 133 135 138 141 141 138 138 140 140 141 144 146 147 147 148 149 147 144 145 145 148 152 159 165 165 169 177 186 188 185 184 165 163 172 184 190 208 223 236 250
Height
1392 1395 1398 1401 1405 1409 1412 1415 1419 1422 1426 1429 1433 1436 1439 1441 1444 1446 1449 1451 1453 1455 1456 1458 1459 1460 1461 1462 1462 1462 1462 1462 1459 1457 1457 1457 1456 1455 1453 1452 1450 1447 1445
1387 1389 1392 1395 1398 1402 1405 1408 1412 1415 1419 1422 1425 1428 1431 1434 1436 1439 1441 1443 1445 1447 1449 1450 1452 1453 1454 1454 1455 1455 1455 1455 1454 1451 1451 1450 1449 1448 1447 1445 1443 1440 1438
1382 1384 1386 1389 1392 1395 1398 1402 1405 1408 1412 1415 1418 1420 1423 1426 1428 1431 1433 1435 1437 1439 1441 1442 1444 1445 1446 1447 1447 1448 1448 1448 1447 1446 1444 1444 1443 1442 1440 1438 1436 1434 1432
1377 1378 1380 1383 1385 1388 1392 1395 1398 1401 1404 1407 1410 1413 1415 1418 1421 1423 1425 1427 1429 1431 1433 1435 1436 1437 1438 1440 1440 1441 1441 1441 1441 1440 1438 1437 1436 1435 1433 1431 1429 1427 1425
1371 1372 1374 1377 1380 1382 1385 1388 1391 1394 1397 1400 1403 1405 1408 1410 1412 1415 1418 1420 1422 1424 1425 1427 1429 1430 1431 1432 1433 1434 1434 1434 1434 1433 1432 1431 1430 1428 1427 1425 1422 1420 1418
1365 1367 1368 1370 1372 1375 1378 1380 1383 1386 1389 1392 1395 1397 1399 1402 1405 1407 1410 1413 1415 1416 1418 1420 1422 1423 1424 1425 1426 1427 1428 1428 1427 1427 1426 1425 1423 1423 1421 1419 1416 1413 1410
1360 1361 1362 1364 1365 1368 1370 1373 1376 1379 1382 1385 1387 1390 1392 1395 1397 1400 1403 1405 1407 1409 1411 1413 1414 1415 1417 1418 1419 1420 1420 1421 1421 1421 1420 1419 1418 1417 1415 1413 1411 1408 1406
1353 1354 1356 1357 1359 1361 1363 1366 1369 1371 1374 1377 1380 1382 1385 1387 1390 1393 1395 1398 1400 1402 1404 1406 1407 1409 1410 1411 1412 1413 1413 1414 1414 1414 1414 1413 1412 1411 1410 1408 1406 1403 1401
1348 1348 1349 1351 1352 1354 1356 1358 1361 1364 1367 1370 1372 1375 1378 1380 1383 1386 1389 1391 1393 1395 1397 1399 1401 1402 1404 1405 1406 1407 1407 1407 1408 1408 1407 1407 1406 1405 1404 1403 1400 1398 1394
1342 1343 1344 1345 1346 1347 1349 1352 1354 1357 1360 1363 1365 1368 1371 1373 1376 1379 1382 1384 1386 1388 1390 1392 1394 1395 1397 1398 1399 1400 1400 1401 1401 1401 1401 1401 1400 1399 1398 1397 1395 1393 1390
1337 1337 1338 1339 1340 1342 1343 1346 1348 1351 1354 1356 1359 1362 1365 1367 1370 1372 1375 1377 1379 1381 1383 1385 1387 1389 1390 1392 1393 1394 1395 1395 1395 1395 1395 1395 1395 1394 1393 1391 1390 1389 1386
1333 1333 1333 1333 1334 1336 1338 1340 1342 1345 1347 1350 1352 1355 1358 1361 1363 1366 1368 1371 1373 1375 1376 1378 1381 1383 1384 1386 1387 1388 1389 1389 1390 1390 1390 1389 1389 1388 1387 1386 1385 1384 1382
1328 1328 1328 1328 1329 1331 1332 1334 1336 1338 1341 1343 1346 1348 1351 1354 1357 1360 1362 1365 1367 1369 1371 1373 1375 1377 1378 1380 1381 1382 1383 1383 1384 1384 1384 1384 1384 1383 1382 1381 1380 1379 1378
1324 1323 1323 1323 1324 1325 1327 1329 1330 1332 1334 1337 1339 1342 1345 1348 1350 1353 1355 1358 1360 1363 1365 1367 1369 1371 1373 1374 1376 1377 1377 1378 1379 1379 1379 1379 1379 1378 1378 1377 1375 1374 1372
1320 1319 1319 1319 1319 1320 1322 1323 1325 1326 1328 1331 1333 1336 1338 1341 1344 1347 1349 1352 1354 1356 1359 1361 1363 1365 1367 1369 1370 1371 1372 1373 1374 1374 1375 1374 1374 1374 1373 1372 1371 1369 1368
1316 1315 1315 1315 1315 1316 1317 1318 1320 1322 1324 1327 1330 1332 1334 1337 1340 1342 1345 1347 1349 1352 1354 1355 1357 1359 1361 1363 1365 1366 1368 1369 1369 1370 1370 1370 1370 1369 1369 1368 1367 1365 1364
1312 1311 1311 1311 1311 1312 1312 1313 1315 1317 1320 1323 1325 1328 1330 1333 1335 1337 1340 1342 1345 1347 1349 1350 1352 1355 1357 1359 1360 1362 1363 1364 1365 1365 1366 1366 1366 1365 1365 1364 1363 1362 1360
1308 1308 1308 1308 1308 1308 1308 1309 1311 1313 1315 1317 1321 1323 1326 1329 1331 1333 1336 1338 1340 1342 1344 1346 1348 1350 1352 1354 1356 1357 1359 1360 1361 1361 1361 1362 1362 1361 1361 1360 1359 1358 1357
1304 1304 1304 1304 1304 1304 1305 1306 1308 1310 1312 1314 1317 1320 1323 1325 1328 1330 1332 1334 1335 1337 1340 1342 1344 1347 1348 1350 1352 1353 1355 1356 1357 1357 1357 1358 1358 1357 1357 1356 1356 1355 1354
1301 1301 1301 1300 1300 1301 1302 1303 1304 1306 1308 1310 1313 1315 1318 1321 1323 1326 1328 1330 1332 1334 1336 1339 1341 1343 1345 1346 1348 1349 1350 1351 1352 1353 1353 1353 1354 1353 1353 1352 1352 1351 1350
1297 1297 1297 1297 1297 1298 1299 1300 1302 1303 1305 1308 1310 1313 1315 1317 1319 1322 1324 1327 1329 1331 1333 1335 1337 1339 1341 1343 1344 1345 1346 1347 1348 1349 1349 1349 1349 1349 1349 1349 1349 1348 1348
1293 1293 1294 1294 1295 1296 1297 1298 1300 1302 1304 1306 1308 1311 1313 1316 1318 1320 1322 1325 1327 1329 1331 1332 1334 1336 1338 1339 1340 1341 1342 1343 1344 1344 1345 1345 1346 1346 1346 1346 1346 1346 1345
1291 1291 1292 1292 1293 1294 1295 1297 1298 1300 1302 1304 1306 1308 1311 1313 1315 1318 1320 1323 1325 1326 1328 1330 1331 1333 1334 1336 1337 1337 1338 1339 1340 1341 1341 1341 1342 1342 1343 1343 1343 1343 1342
1289 1289 1290 1291 1291 1292 1293 1295 1296 1298 1300 1302 1304 1307 1309 1311 1313 1316 1318 1320 1322 1324 1326 1327 1329 1330 1331 1332 1333 1334 1335 1336 1337 1337 1338 1338 1339 1339 1340 1340 1340 1340 1340
1287 1288 1288 1289 1290 1291 1292 1293 1295 1296 1298 1301 1303 1305 1307 1309 1311 1313 1316 1318 1320 1321 1323 1325 1326 1327 1328 1329 1330 1331 1332 1333 1334 1334 1335 1335 1336 1337 1337 1338 1338 1338 1338
1285 1286 1287 1287 1288 1289 1290 1292 1293 1295 1297 1299 1301 1303 1305 1307 1309 1311 1313 1315 1317 1319 1320 1322 1323 1325 1326 1327 1328 1329 1330 1330 1331 1332 1333 1333 1334 1335 1335 1336 1336 1336 1336